This demonstration page uses our WeatherBlox Daily Observations layout. Learn more.

Left ArrowRight Arrow

47.50024, -111.30081

Hourly Observations for November 18, 2015

Temp ( °F °C ) Dew Point ( °F °C ) Humidity (%) Winds ( mph kmh ) Pressure ( in mb ) Visibility ( mi km ) Precip ( " mm )
12:41 am 00:41 Cloudy with Light Rain 45 7.2 36 2.2 71 71 WSW 38 61 29.21 989 4 6 0.00 0.03
12:53 am 00:53 Cloudy with Rain 43 6.1 37 2.8 80 80 WSW 38 61 29.20 989 3 4 0.04 1.02
1:03 am 01:03 Cloudy with Light Rain 43 6 37 3 81 81 WSW 43 69 29.21 989 4 6 0.00 0.00
1:53 am 01:53 Mostly Cloudy 42 5.6 34 1.1 73 73 WNW 28 44 29.29 992 10 16 0.01 0.25
2:53 am 02:53 Mostly Cloudy 37 2.8 28 -2.2 70 70 WSW 29 46 29.34 994 10 16 0.00 0.03
3:53 am 03:53 Cloudy 36 2.2 25 -3.9 64 64 W 39 63 29.42 996 10 16 0.00 0.00
4:15 am 04:15 Very Windy with Snow Likely 34 1.1 27 -2.8 76 76 WNW 44 70 29.56 1001 2 3 0.00 0.03
4:17 am 04:17 Very Windy with Snow Likely 33 0.6 27 -2.8 78 78 WNW 38 61 29.56 1001 1 2 0.00 0.03
4:24 am 04:24 Cloudy with Snow 30 -1 28 -2 93 93 NW 37 59 29.59 1002 1 1 0.00 0.00
4:37 am 04:37 Cloudy with Snow 29 -1.7 27 -2.8 92 92 NNW 26 43 29.65 1004 1 1 0.02 0.51
4:45 am 04:45 Windy with Snow Likely 28 -2.2 27 -2.8 96 96 NNW 25 41 29.71 1006 1 2 0.02 0.51
4:48 am 04:48 Windy with Snow Likely 28 -2 27 -3 93 93 NNW 23 37 29.71 1006 1 2 0.02 0.51
4:53 am 04:53 Cloudy with Light Snow 28 -2.2 27 -2.8 96 96 NW 18 30 29.63 1003 2 3 0.02 0.51
4:57 am 04:57 Windy with Snow Likely 28 -2.2 27 -2.8 96 96 NW 22 35 29.71 1006 3 5 0.00 0.03
5:14 am 05:14 Windy with Snow Likely 28 -2 27 -3 93 93 NW 23 37 29.74 1007 5 8 0.00 0.00
5:21 am 05:21 Windy with Snow Likely 28 -2.2 25 -3.9 88 88 NW 24 39 29.77 1008 5 8 0.00 0.03
5:53 am 05:53 Cloudy 27 -2.8 24 -4.4 89 89 NW 22 35 29.73 1007 7 11 0.00 0.03
6:04 am 06:04 Cloudy 27 -3 25 -4 93 93 NNW 20 31 29.85 1011 7 11 0.00 0.00
6:20 am 06:20 Windy with Snow Likely 27 -3 23 -5 86 86 NNW 20 31 29.85 1011 4 6 0.00 0.00
6:53 am 06:53 Cloudy with Light Snow 26 -3.3 22 -5.6 84 84 NNW 18 30 29.80 1009 5 8 0.00 0.03
7:09 am 07:09 Cloudy 26 -3.3 22 -5.6 84 84 NNW 15 24 29.88 1012 7 11 0.00 0.03
7:39 am 07:39 Cloudy 26 -3.3 22 -5.6 84 84 WNW 15 24 29.94 1014 10 16 0.00 0.03
7:53 am 07:53 Cloudy 26 -3.3 21 -6.1 81 81 NW 13 20 29.87 1012 10 16 0.00 0.03
8:46 am 08:46 Cloudy with Light Snow 25 -4 21 -6 86 86 NW 12 19 30.00 1016 3 4 0.00 0.00
8:53 am 08:53 Cloudy with Light Snow 25 -3.9 21 -6.1 85 85 NW 13 20 29.92 1013 3 5 0.00 0.03
9:53 am 09:53 Cloudy 26 -3.3 21 -6.1 81 81 WNW 8 13 29.95 1014 10 16 0.00 0.03
10:43 am 10:43 Cloudy with Light Snow 26 -3.3 21 -6.1 81 81 WNW 13 20 30.09 1019 2 3 0.00 0.03
10:45 am 10:45 Cloudy with Light Snow 26 -3.3 21 -6.1 81 81 WNW 12 19 30.09 1019 2 3 0.00 0.03
10:50 am 10:50 Cloudy with Light Snow 27 -3 19 -7 74 74 NW 10 17 30.09 1019 1 1 0.00 0.00
10:53 am 10:53 Cloudy with Light Snow 26 -3.3 21 -6.1 81 81 WNW 14 22 29.98 1015 1 1 0.00 0.03
11:08 am 11:08 Cloudy with Light Snow 25 -4 19 -7 80 80 WNW 10 17 30.09 1019 2 3 0.00 0.00
11:29 am 11:29 Cloudy with Light Snow 25 -3.9 21 -6.1 85 85 WNW 9 15 30.09 1019 2 3 0.01 0.25
11:53 am 11:53 Cloudy with Light Snow 26 -3.3 21 -6.1 81 81 NW 10 17 29.99 1016 2 3 0.01 0.25
12:04 pm 12:04 Cloudy with Light Snow 25 -4 19 -7 80 80 NW 9 15 30.09 1019 2 3 0.00 0.00
12:08 pm 12:08 Cloudy with Light Snow 25 -4 19 -7 80 80 NW 7 11 30.09 1019 2 3 0.00 0.00
12:14 pm 12:14 Cloudy with Light Snow 25 -4 21 -6 86 86 WNW 8 13 30.09 1019 2 3 0.00 0.00
12:36 pm 12:36 Cloudy with Light Snow 27 -3 21 -6 80 80 W 8 13 30.09 1019 3 5 0.00 0.00
12:53 pm 12:53 Cloudy with Light Snow 26 -3.3 22 -5.6 84 84 W 9 15 30.02 1017 4 6 0.00 0.03
1:33 pm 13:33 Cloudy with Light Snow 26 -3.3 22 -5.6 84 84 WSW 7 11 30.09 1019 2 2 0.00 0.03
1:49 pm 13:49 Cloudy with Light Snow 27 -3 21 -6 80 80 SSW 7 11 30.09 1019 2 2 0.00 0.03
1:53 pm 13:53 Cloudy with Light Snow 26 -3.3 22 -5.6 84 84 WSW 8 13 30.04 1017 1 2 0.00 0.03
1:59 pm 13:59 Cloudy with Light Snow 25 -3.9 22 -5.6 88 88 WSW 7 11 30.09 1019 1 1 0.01 0.25
2:11 pm 14:11 Cloudy with Light Snow 25 -3.9 23 -5 92 92 W 9 15 30.09 1019 1 1 0.01 0.25
2:35 pm 14:35 Cloudy with Light Snow 26 -3.3 21 -6.1 81 81 WNW 3 6 30.09 1019 1 2 0.01 0.25
2:40 pm 14:40 Cloudy with Light Snow 25 -4 21 -6 86 86 W 5 7 30.09 1019 2 3 0.00 0.00
2:53 pm 14:53 Cloudy 26 -3.3 20 -6.7 78 78 NW 5 7 30.06 1018 9 14 0.01 0.25
3:26 pm 15:26 Cloudy 27 -3 19 -7 74 74 WNW 6 9 30.12 1020 10 16 0.00 0.00
3:34 pm 15:34 Cloudy 25 -4 19 -7 80 80 W 6 9 30.12 1020 10 16 0.00 0.00
3:53 pm 15:53 Cloudy 26 -3.3 21 -6.1 81 81 W 6 9 30.10 1019 10 16 0.00 0.00
4:46 pm 16:46 Partly Cloudy 21 -6 19 -7 93 93 SW 5 7 30.21 1023 10 16 0.00 0.00
4:53 pm 16:53 Mostly Clear 22 -5.6 19 -7.2 89 89 SW 6 9 30.15 1021 10 16 0.00 0.00
5:53 pm 17:53 Mostly Clear 19 -7.2 17 -8.3 92 92 SSW 9 15 30.16 1021 10 16 0.00 0.00
6:53 pm 18:53 Mostly Cloudy 20 -6.7 17 -8.3 89 89 SW 12 19 30.16 1021 10 16 0.00 0.00
7:53 pm 19:53 Cloudy 20 -6.7 17 -8.3 89 89 SW 16 26 30.16 1021 10 16 0.00 0.00
8:53 pm 20:53 Mostly Clear 20 -6.7 17 -8.3 89 89 SW 13 20 30.16 1021 10 16 0.00 0.00
9:53 pm 21:53 Clear 20 -6.7 16 -8.9 85 85 SW 13 20 30.16 1021 10 16 0.00 0.00
10:53 pm 22:53 Clear 19 -7.2 14 -10 81 81 SW 12 19 30.16 1021 10 16 0.00 0.00
11:53 pm 23:53 Clear 20 -6.7 14 -10 78 78 SW 10 17 30.16 1021 10 16 0.00 0.00

Powered by AerisWeather